Wetterstats.de || Aktuelle Messwerte || Aktuelle Wetterkarten NEU! || Radar / Satellit NEU! || Wetterarchiv || Langzeitwerte NEU! || Klim. Kenntage || Met. Ereignisse || Agrarwerte || Echtzeitwerte

Monatsübersicht für September 2020 Diagramm
 
Wetter Information zur Wetteranzeige
Zeitraffer
Tageslänge (hh:mm)
Höchsttemperatur in °C
Uhrzeit
Tiefsttemperatur in °C
Uhrzeit
Luftfeuchte (max., in %)
Uhrzeit
Luftfeuchte (min., in %)
Uhrzeit
Luftdruck (max., in hPa)
Uhrzeit
Luftdruck (min., in hPa)
Uhrzeit
Luftdruck (Ø, in hPa)
Regenrate (max, mm/h)
Uhrzeit
Niederschlag in mm
Verdunstung in mm
Solar in W/m² (Ø)
Solar in W/m² (max.)
UV-Index (max.)
Sonnenscheindauer (hh:mm)
Windrichtung (Ø)
Windstärke (Ø in km/h)
Windstärke (Ø in bft)
Windböe (max., in km/h)
Uhrzeit
Windböe (max., in bft)
Uhrzeit
Taupunkt (max., in °C)
Uhrzeit
Taupunkt (min., in °C)
Uhrzeit
Windchill (min., in °C)
Uhrzeit
Gewitterindex (max.)
Uhrzeit
Waldbrandindex (max.)
Uhrzeit
Graslandfeuerindex (max.)
Uhrzeit
Staubsturm-Index (max.)
Uhrzeit
01
Zeitraffer
13:40
18.1
13:40 Uhr
9.9
06:05 Uhr

97
07:10 Uhr
53
14:25 Uhr
1018.3
06:45 Uhr

1016.5
16:25 Uhr
1017.6
2,400
02:25 Uhr
0,200
2.057
236
900
13:35 Uhr
4.4
12:10 Uhr

04:00:00
4,9
1
22,5
13:10 Uhr

4
13.1
10:55 Uhr
7.5
15:00 Uhr
9.9
06:05 Uhr
2
00:00 Uhr

00:00 Uhr

00:00 Uhr

00:00 Uhr
02
Zeitraffer
13:35
19.7
13:35 Uhr
10.0
03:25 Uhr

93
07:15 Uhr
50
13:40 Uhr
1017.2
21:55 Uhr

1015.6
06:45 Uhr
1016.2
2,400
06:10 Uhr
0,400
2.007
224
923
12:30 Uhr
4.3
12:25 Uhr

03:05:00
5,2
1
29,0
14:00 Uhr

4
12.6
10:20 Uhr
8.3
02:00 Uhr
10.0
03:25 Uhr
2
22:05 Uhr

00:00 Uhr

00:00 Uhr

00:00 Uhr
03
Zeitraffer
13:32
22.1
15:20 Uhr
13.2
07:35 Uhr

96
05:40 Uhr
47
17:00 Uhr
1020.0
12:50 Uhr

1017.0
01:25 Uhr
1018.8
2,400
02:10 Uhr
5,400
3.302
351
886
13:35 Uhr
4.2
12:25 Uhr

06:50:00
7,6
2
30,6
12:40 Uhr

5
14.7
10:25 Uhr
8.5
22:10 Uhr
10.4
04:30 Uhr
3
10:00 Uhr

00:00 Uhr

00:00 Uhr

00:00 Uhr
04
Zeitraffer
13:28
22.9
16:25 Uhr
14.6
01:40 Uhr

97
07:05 Uhr
65
00:00 Uhr
1020.9
13:25 Uhr

1018.5
04:50 Uhr
1019.6
19,200
03:15 Uhr
7,800
1.829
181
708
14:15 Uhr
4.2
13:40 Uhr

02:00:00
7,4
2
35,4
16:35 Uhr

5
17.8
14:40 Uhr
10.1
00:00 Uhr
13.3
08:35 Uhr
7
23:00 Uhr

00:00 Uhr

00:00 Uhr

00:00 Uhr
05
Zeitraffer
13:23
18.2
08:55 Uhr
13.2
23:45 Uhr

97
07:10 Uhr
74
18:55 Uhr
1018.8
00:00 Uhr

1014.4
08:10 Uhr
1016.2
4,800
07:40 Uhr
1,000
1.016
118
355
15:20 Uhr
2.2
15:10 Uhr

00:45:00
4,0
1
22,5
16:15 Uhr

4
17.6
08:55 Uhr
11.2
20:15 Uhr
13.2
23:45 Uhr
7
00:00 Uhr

00:00 Uhr

00:00 Uhr

00:00 Uhr
06
Zeitraffer
13:20
19.7
15:55 Uhr
9.9
23:50 Uhr

93
05:55 Uhr
45
16:40 Uhr
1020.0
23:15 Uhr

1017.1
00:20 Uhr
1018.2
0,000
00:00 Uhr
0,000
2.743
293
837
12:40 Uhr
4.2
12:20 Uhr

06:30:00
6,2
1
32,2
11:10 Uhr

5
11.2
00:00 Uhr
7.0
17:30 Uhr
9.5
06:40 Uhr
2
00:00 Uhr

00:00 Uhr

00:00 Uhr

00:00 Uhr
07
Zeitraffer
13:16
19.8
16:00 Uhr
8.1
03:20 Uhr

93
03:55 Uhr
49
17:55 Uhr
1025.3
23:15 Uhr

1019.9
00:05 Uhr
1022.7
0,000
00:00 Uhr
0,000
2.438
285
863
11:40 Uhr
4.3
13:00 Uhr

05:35:00
4,6
1
29,0
13:50 Uhr

4
12.1
11:40 Uhr
6.4
03:20 Uhr
8.1
03:20 Uhr
0
00:00 Uhr

00:00 Uhr

00:00 Uhr

00:00 Uhr
08
Zeitraffer
13:11
23.2
16:00 Uhr
9.4
00:00 Uhr

83
00:00 Uhr
43
16:00 Uhr
1025.4
00:35 Uhr

1023.1
14:40 Uhr
1024.3
0,000
00:00 Uhr
0,000
3.099
271
766
14:40 Uhr
3.4
11:00 Uhr

06:15:00
7,6
2
40,2
14:30 Uhr

5
12.8
21:35 Uhr
6.5
00:30 Uhr
9.4
00:00 Uhr
0
00:00 Uhr

00:00 Uhr

00:00 Uhr

00:00 Uhr
09
Zeitraffer
13:08
26.2
16:30 Uhr
14.2
03:55 Uhr

89
04:20 Uhr
43
15:55 Uhr
1024.6
00:05 Uhr

1015.8
21:00 Uhr
1020.2
0,000
00:00 Uhr
0,000
2.870
271
905
13:35 Uhr
5.2
12:50 Uhr

05:05:00
5,9
1
30,6
14:20 Uhr

5
15.9
11:50 Uhr
12.0
02:00 Uhr
14.2
03:55 Uhr
5
14:00 Uhr

00:00 Uhr

00:00 Uhr

00:00 Uhr
10
Zeitraffer
13:03
20.3
00:50 Uhr
8.6
23:55 Uhr

88
02:30 Uhr
42
16:20 Uhr
1022.0
10:40 Uhr

1015.8
00:05 Uhr
1020.1
2,400
02:00 Uhr
0,600
2.819
303
823
12:45 Uhr
4.2
12:40 Uhr

06:55:00
5,7
1
35,4
01:35 Uhr

5
16.1
01:25 Uhr
6.0
23:55 Uhr
8.6
23:55 Uhr
6
01:05 Uhr

00:00 Uhr

00:00 Uhr

00:00 Uhr
11
Zeitraffer
12:59
21.8
16:00 Uhr
6.3
04:25 Uhr

96
07:10 Uhr
39
11:55 Uhr
1020.8
00:20 Uhr

1017.2
19:10 Uhr
1019.0
0,000
00:00 Uhr
0,000
3.124
355
645
12:50 Uhr
3.6
12:25 Uhr

10:05:00
3,7
1
22,5
13:55 Uhr

4
11.6
10:35 Uhr
4.8
04:25 Uhr
6.2
07:05 Uhr
0
00:00 Uhr

00:00 Uhr

00:00 Uhr

00:00 Uhr
12
Zeitraffer
12:56
25.3
15:30 Uhr
9.6
06:55 Uhr

92
07:00 Uhr
42
16:55 Uhr
1021.9
23:50 Uhr

1017.1
16:25 Uhr
1018.4
0,000
00:00 Uhr
0,000
3.454
333
621
13:05 Uhr
3.4
13:05 Uhr

09:10:00
5,6
1
32,2
15:00 Uhr

5
13.5
11:10 Uhr
7.7
06:05 Uhr
9.6
06:55 Uhr
2
19:05 Uhr

00:00 Uhr

00:00 Uhr

00:00 Uhr
13
Zeitraffer
12:51
23.7
15:15 Uhr
11.3
05:45 Uhr

86
06:00 Uhr
48
14:45 Uhr
1027.0
23:05 Uhr

1021.9
00:00 Uhr
1025.2
0,000
00:00 Uhr
0,000
3.150
308
613
12:10 Uhr
3.6
13:00 Uhr

09:10:00
5,4
1
33,8
13:35 Uhr

5
13.3
14:15 Uhr
8.7
05:45 Uhr
11.2
07:00 Uhr
2
15:05 Uhr

00:00 Uhr

00:00 Uhr

00:00 Uhr
14
Zeitraffer
12:47
28.7
15:45 Uhr
11.8
06:25 Uhr

90
07:15 Uhr
42
14:20 Uhr
1029.1
11:05 Uhr

1025.7
19:15 Uhr
1027.4
0,000
00:00 Uhr
0,000
3.327
336
617
12:45 Uhr
3.6
12:40 Uhr

09:35:00
4,1
1
17,7
13:45 Uhr

3
15.8
16:00 Uhr
9.6
06:25 Uhr
11.8
06:25 Uhr
4
17:00 Uhr

00:00 Uhr

00:00 Uhr

00:00 Uhr
15
Zeitraffer
12:44
30.3
15:10 Uhr
15.5
05:25 Uhr

84
05:35 Uhr
37
15:15 Uhr
1025.6
00:00 Uhr

1018.8
22:15 Uhr
1022.4
0,000
00:00 Uhr
0,000
3.912
337
606
13:10 Uhr
3.4
12:10 Uhr

09:10:00
6,5
1
25,7
14:15 Uhr

4
17.7
12:20 Uhr
12.6
03:55 Uhr
14.5
06:15 Uhr
6
19:00 Uhr

00:00 Uhr

00:00 Uhr

00:00 Uhr


 
Wetter Information zur Wetteranzeige
Zeitraffer
Tageslänge (hh:mm)
Höchsttemperatur in °C
Uhrzeit
Tiefsttemperatur in °C
Uhrzeit
Luftfeuchte (max., in %)
Uhrzeit
Luftfeuchte (min., in %)
Uhrzeit
Luftdruck (max., in hPa)
Uhrzeit
Luftdruck (min., in hPa)
Uhrzeit
Luftdruck (Ø, in hPa)
Regenrate (max, mm/h)
Uhrzeit
Niederschlag in mm
Verdunstung in mm
Solar in W/m² (Ø)
Solar in W/m² (max.)
UV-Index (max.)
Sonnenscheindauer (hh:mm)
Windrichtung (Ø)
Windstärke (Ø in km/h)
Windstärke (Ø in bft)
Windböe (max., in km/h)
Uhrzeit
Windböe (max., in bft)
Uhrzeit
Taupunkt (max., in °C)
Uhrzeit
Taupunkt (min., in °C)
Uhrzeit
Windchill (min., in °C)
Uhrzeit
Gewitterindex (max.)
Uhrzeit
Waldbrandindex (max.)
Uhrzeit
Graslandfeuerindex (max.)
Uhrzeit
Staubsturm-Index (max.)
Uhrzeit
16
Zeitraffer
12:39
29.8
15:45 Uhr
15.8
06:20 Uhr

85
06:50 Uhr
36
16:00 Uhr
1019.3
23:55 Uhr

1014.9
16:50 Uhr
1016.6
0,000
00:00 Uhr
0,000
3.632
334
596
13:15 Uhr
3.5
12:15 Uhr

08:55:00
5,5
1
37,0
23:10 Uhr

5
17.4
11:50 Uhr
11.2
23:45 Uhr
15.8
06:20 Uhr
6
00:00 Uhr

00:00 Uhr

00:00 Uhr

00:00 Uhr
17
Zeitraffer
12:35
18.6
15:25 Uhr
8.1
23:30 Uhr

80
06:40 Uhr
37
16:00 Uhr
1030.8
22:45 Uhr

1019.3
00:00 Uhr
1026.7
0,000
00:00 Uhr
0,000
3.429
341
687
11:40 Uhr
3.6
12:50 Uhr

08:30:00
8,1
2
32,2
10:10 Uhr

5
11.3
00:45 Uhr
3.1
16:05 Uhr
8.1
23:30 Uhr
2
00:00 Uhr

00:00 Uhr

00:00 Uhr

00:00 Uhr
18
Zeitraffer
12:31
19.2
15:05 Uhr
3.3
06:50 Uhr

91
07:15 Uhr
37
16:30 Uhr
1031.5
10:05 Uhr

1027.7
23:15 Uhr
1029.8
0,000
00:00 Uhr
0,000
2.692
347
631
12:50 Uhr
3.9
12:45 Uhr

09:30:00
2,9
1
16,1
13:10 Uhr

3
7.6
11:45 Uhr
1.6
06:25 Uhr
3.3
06:50 Uhr
0
00:00 Uhr

00:00 Uhr

00:00 Uhr

00:00 Uhr
19
Zeitraffer
12:27
21.4
14:40 Uhr
3.3
06:30 Uhr

90
06:05 Uhr
32
14:45 Uhr
1027.6
00:00 Uhr

1021.7
19:15 Uhr
1024.5
0,000
00:00 Uhr
0,000
2.921
316
608
13:20 Uhr
3.5
12:55 Uhr

08:30:00
4,0
1
19,3
14:20 Uhr

3
7.2
11:55 Uhr
1.5
06:30 Uhr
3.3
06:30 Uhr
0
00:00 Uhr

00:00 Uhr

00:00 Uhr

00:00 Uhr
20
Zeitraffer
12:23
23.3
15:05 Uhr
4.4
06:50 Uhr

89
07:25 Uhr
33
13:50 Uhr
1022.1
00:00 Uhr

1018.9
18:25 Uhr
1020.5
0,000
00:00 Uhr
0,000
3.124
330
605
13:00 Uhr
3.4
12:40 Uhr

08:25:00
4,5
1
25,7
13:20 Uhr

4
8.9
11:20 Uhr
2.2
06:45 Uhr
4.4
06:50 Uhr
0
00:00 Uhr

00:00 Uhr

00:00 Uhr

00:00 Uhr
21
Zeitraffer
12:19
24.1
15:05 Uhr
4.9
07:00 Uhr

89
07:10 Uhr
36
15:55 Uhr
1019.9
00:00 Uhr

1015.8
23:35 Uhr
1018.4
0,000
00:00 Uhr
0,000
2.743
328
589
12:45 Uhr
3.4
12:45 Uhr

09:15:00
2,8
1
17,7
14:25 Uhr

3
10.7
13:20 Uhr
3.0
06:10 Uhr
4.9
07:00 Uhr
0
00:00 Uhr

00:00 Uhr

00:00 Uhr

00:00 Uhr
22
Zeitraffer
12:15
26.3
14:55 Uhr
10.4
02:00 Uhr

83
02:20 Uhr
39
15:40 Uhr
1015.8
00:00 Uhr

1008.2
23:55 Uhr
1011.9
0,000
00:00 Uhr
0,000
3.023
318
575
13:30 Uhr
3.2
12:35 Uhr

09:05:00
4,7
1
22,5
16:10 Uhr

4
14.3
12:35 Uhr
7.5
02:00 Uhr
10.4
02:00 Uhr
2
20:05 Uhr

00:00 Uhr

00:00 Uhr

00:00 Uhr
23
Zeitraffer
12:10
27.4
15:05 Uhr
13.2
06:45 Uhr

87
23:50 Uhr
42
14:40 Uhr
1008.1
00:00 Uhr

1004.0
17:35 Uhr
1005.8
2,400
20:05 Uhr
0,200
2.921
297
575
12:35 Uhr
3.0
12:35 Uhr

08:15:00
4,7
1
25,7
18:35 Uhr

4
15.3
12:20 Uhr
10.3
00:15 Uhr
13.2
06:45 Uhr
4
20:05 Uhr

00:00 Uhr

00:00 Uhr

00:00 Uhr
24
Zeitraffer
12:07
23.3
12:50 Uhr
12.7
23:55 Uhr

88
00:00 Uhr
53
12:55 Uhr
1005.5
17:45 Uhr

1003.6
03:30 Uhr
1004.6
2,400
06:35 Uhr
0,200
2.616
261
619
12:20 Uhr
3.1
12:45 Uhr

06:35:00
5,9
1
33,8
11:40 Uhr

5
14.3
00:00 Uhr
9.5
23:55 Uhr
12.7
23:55 Uhr
5
00:00 Uhr

00:00 Uhr

00:00 Uhr

00:00 Uhr
25
Zeitraffer
12:03
15.4
09:25 Uhr
11.9
23:10 Uhr

95
12:50 Uhr
79
01:45 Uhr
1003.9
00:00 Uhr

996.0
09:15 Uhr
998.0
14,400
10:30 Uhr
9,800
0.660
79
260
16:50 Uhr
1.0
15:50 Uhr

00:30:00
4,5
1
20,9
14:45 Uhr

4
13.8
16:15 Uhr
9.4
00:00 Uhr
11.9
23:10 Uhr
2
07:05 Uhr

00:00 Uhr

00:00 Uhr

00:00 Uhr
26
Zeitraffer
11:58
12.1
00:00 Uhr
9.1
23:25 Uhr

96
02:50 Uhr
92
08:40 Uhr
998.7
23:45 Uhr

988.2
15:55 Uhr
994.1
16,800
13:05 Uhr
44,600
0.254
34
121
15:00 Uhr
0.7
14:55 Uhr

00:00:00
6,8
1
40,2
11:55 Uhr

5
11.3
01:15 Uhr
8.5
21:45 Uhr
5.6
20:05 Uhr
2
00:00 Uhr

00:00 Uhr

00:00 Uhr

00:00 Uhr
27
Zeitraffer
11:55
11.8
13:40 Uhr
6.8
04:00 Uhr

96
00:00 Uhr
77
13:50 Uhr
1010.1
23:50 Uhr

998.8
00:00 Uhr
1004.4
0,000
00:00 Uhr
0,000
0.838
131
401
11:35 Uhr
1.9
11:35 Uhr

00:20:00
4,3
1
22,5
00:20 Uhr

4
8.8
17:20 Uhr
6.0
05:00 Uhr
6.7
00:25 Uhr
0
00:00 Uhr

00:00 Uhr

00:00 Uhr

00:00 Uhr
28
Zeitraffer
11:51
18.3
14:30 Uhr
6.6
06:55 Uhr

96
07:25 Uhr
47
14:00 Uhr
1015.1
23:45 Uhr

1010.1
00:35 Uhr
1012.4
0,000
00:00 Uhr
0,000
2.286
304
631
14:30 Uhr
3.0
13:55 Uhr

06:55:00
5,3
1
24,1
11:40 Uhr

4
10.5
12:20 Uhr
5.8
06:35 Uhr
6.6
06:55 Uhr
0
00:00 Uhr

00:00 Uhr

00:00 Uhr

00:00 Uhr
29
Zeitraffer
11:46
18.1
15:10 Uhr
9.6
23:15 Uhr

91
23:30 Uhr
55
14:15 Uhr
1017.5
22:40 Uhr

1014.0
02:10 Uhr
1015.7
2,400
00:45 Uhr
0,200
1.676
224
649
12:50 Uhr
2.8
12:50 Uhr

05:45:00
3,8
1
22,5
14:50 Uhr

4
10.8
13:00 Uhr
7.8
22:55 Uhr
9.6
23:15 Uhr
0
00:00 Uhr

00:00 Uhr

00:00 Uhr

00:00 Uhr
30
Zeitraffer
11:42
15.6
16:55 Uhr
6.9
05:25 Uhr

98
07:20 Uhr
85
16:35 Uhr
1017.4
09:00 Uhr

1013.8
23:55 Uhr
1016.1
0,000
00:00 Uhr
0,000
0.737
118
265
15:15 Uhr
1.2
14:05 Uhr

00:45:00
2,5
1
11,3
08:15 Uhr

2
13.6
15:45 Uhr
6.3
06:35 Uhr
6.9
05:25 Uhr
0
00:00 Uhr

00:00 Uhr

00:00 Uhr

00:00 Uhr
Stationsstandorte || Wetterblog || Wissenswertes || Downloads || Seitenhistorie || Partner || Impressum / Datenschutz